Location: Newark
(43.5167°N, 11.4833°E)
Time: 09:22:48
(UTC+00:00)

Envisat - Visible Passes

Search period start: 25 January 2020 00:00
Search period end: 04 February 2020 00:00
Orbit: 764 x 766 km, 98.1° (Epoch: 24 January)

Date Brightness Start Highest point End Pass type
(mag) Time Alt. Az. Time Alt. Az. Time Alt. Az.
25 Jan 6.2 04:36:20 10° ENE 04:38:52 14° E 04:41:25 10° ESE visible
25 Jan 4.0 17:29:09 10° S 17:34:05 50° W 17:39:02 10° NNW visible
26 Jan 4.0 05:36:40 10° NNE 05:41:39 51° E 05:46:34 10° S visible
26 Jan 3.0 16:52:12 10° SSE 16:57:15 76° ENE 17:02:21 10° N visible
26 Jan 6.2 18:34:25 10° WSW 18:36:51 13° W 18:39:17 10° WNW visible
27 Jan 5.5 05:00:33 10° NE 05:04:38 24° E 05:08:42 10° SSE visible
27 Jan 5.1 17:55:19 10° SSW 17:59:42 29° W 18:04:07 10° NW visible
28 Jan 6.5 04:26:26 10° ENE 04:27:25 11° E 04:28:25 10° E visible
28 Jan 3.1 06:02:02 10° NNE 06:07:10 89° ESE 06:12:15 10° SSW visible
28 Jan 3.5 17:17:43 10° S 17:22:45 64° W 17:27:49 10° NNW visible
29 Jan 4.5 05:25:30 10° NNE 05:30:18 41° E 05:35:04 10° SSE visible
29 Jan 5.9 18:22:09 10° SW 18:25:25 17° W 18:28:42 10° NW visible
30 Jan 5.9 04:49:39 10° NE 04:53:14 19° E 04:56:48 10° SE visible
30 Jan 4.7 17:43:40 10° SSW 17:48:20 36° W 17:53:02 10° NNW visible
31 Jan 3.4 05:50:46 10° NNE 05:55:52 71° ESE 06:00:56 10° S visible
31 Jan 3.2 17:06:22 10° S 17:11:26 80° WSW 17:16:33 10° NNW visible
01 Feb 5.0 05:14:23 10° NNE 05:18:56 32° E 05:23:29 10° SSE visible
01 Feb 5.6 18:10:11 10° SW 18:14:00 21° W 18:17:52 10° NW visible
02 Feb 6.2 04:38:56 10° NE 04:41:49 15° E 04:44:42 10° SE visible
02 Feb 4.2 17:32:08 10° S 17:36:59 46° W 17:41:53 10° NNW visible
03 Feb 3.8 05:39:32 10° NNE 05:44:33 56° E 05:49:32 10° S visible
03 Feb 3.0 16:55:05 10° SSE 17:00:10 82° ENE 17:05:15 10° NNW visible
03 Feb 6.3 18:37:50 10° WSW 18:39:48 12° W 18:41:46 10° WNW visible
